Lexington Weather

Lexington, Massachusetts, USA

76°F
7/25/2024 11:04am 
  • Lexington Conditions: Mostly cloudy
  • Temperature: 76.3°F / 24.6°CWarmer 2.0°F than last hour.
  • Dew Point: 71.8°FIncreased 0.4°Fsince last hour.
  • Relative Humidity: 86%Decreased 5.0% since last hour.
  • Wind: Wind from S S 2 mph, 10-min avg: 3 mph, gust: 8 mph
  • Barometer: 29.96 in Steady
  • Visibility: 10 miles
  • Rain Today: 0.00 in
  •   

Regional Weather Roundup
for Boston, MA

        
000
ASUS41 KBOX 211910
RWRBOX

REGIONAL WEATHER ROUNDUP
NATIONAL WEATHER SERVICE BOSTON/NORTON MA
300 PM EDT SUN JUL 21 2024

NOTE:  "FAIR" INDICATES FEW OR NO CLOUDS BELOW 12,000 FEET WITH NO 
SIGNIFICANT WEATHER AND/OR OBSTRUCTIONS TO VISIBILITY.

MAZALL-212000-
EASTERN MASSACHUSETTS
  
CITY           SKY/WX    TMP DP  RH WIND       PRES   REMARKS
BOSTON         PTSUNNY   71  61  70 E12       29.98R                  
BEVERLY        PTSUNNY   81  62  52 SE8       29.97S                  
LAWRENCE       SUNNY     83  60  45 W6        29.99F                  
BEDFORD        MOSUNNY   85  61  44 NW7       29.97S                  
NORWOOD        MOSUNNY   88  64  44 VRB7      29.97F                  
MARSHFIELD     SUNNY     81  61  50 VRB7      29.97F                  
PLYMOUTH       MOSUNNY   87  59  38 NE7       29.97F                  
TAUNTON        PTSUNNY   90  59  35 VRB3      29.96F                  
NEW BEDFORD    MOSUNNY   87  62  43 W9G16     29.97S                  
$$

MAZALL-212000-
CAPE COD AND THE ISLANDS
  
CITY           SKY/WX    TMP DP  RH WIND       PRES   REMARKS
FALMOUTH       MOSUNNY   84  63  48 VRB6      30.00S                  
HYANNIS        SUNNY     80  69  69 SW9G18    29.97S                  
CHATHAM        SUNNY     81  70  69 SW8G18    30.00R                  
PROVINCETOWN   SUNNY     81  62  52 E9        29.99F                  
NANTUCKET      SUNNY     77  70  79 SW17      30.00S                  
MARTHAS VNYRD  SUNNY     80  69  69 SW12      29.99F                  
$$
 
MAZALL-212000-
CENTRAL AND WESTERN MASSACHUSETTS
  
CITY           SKY/WX    TMP DP  RH WIND       PRES   REMARKS
WORCESTER      PTSUNNY   82  58  43 NW9       30.03S                  
FITCHBURG      SUNNY    N/A N/A N/A NW12G17   30.00F                  
ORANGE           N/A     83  60  45 CALM      30.02S                  
SPRINGFIELD    PTSUNNY   84  58  41 N7        29.97S                  
WESTFIELD      MOSUNNY   86  59  39 NW12G17   30.00S                  
NORTH ADAMS    MOSUNNY   79  63  57 NW5       30.03F                  
PITTSFIELD     MOSUNNY   78  59  51 NW8       30.05S                  
$$
 
RIZALL-212000-
RHODE ISLAND
  
CITY           SKY/WX    TMP DP  RH WIND       PRES   REMARKS
PROVIDENCE     PTSUNNY   85  61  44 VRB7      29.99S                  
NEWPORT        SUNNY     82  66  58 S9        29.99S                  
BLOCK ISLAND   SUNNY     80  68  66 SW14        N/A                   
SMITHFIELD     MOSUNNY   83  61  47 NW7       30.00F                  
WESTERLY       SUNNY     83  63  50 SW9       30.00S                  
$$
 
CTZALL-212000-
CONNECTICUT
  
CITY           SKY/WX    TMP DP  RH WIND       PRES   REMARKS
BRADLEY INTL   PTSUNNY   88  61  40 VRB7      30.00S                  
HARTFORD       MOSUNNY   86  59  39 W8        29.99S                  
PLAINVILLE     PTCLDY    85  58  39 VRB6      30.00S                  
BRIDGEPORT     MOSUNNY   84  57  39 S8        30.01S                  
DANBURY        MOSUNNY   85  59  41 N9        30.04S                  
GROTON         SUNNY     83  63  50 SW9       29.99S                  
NEW HAVEN      MOSUNNY   84  65  52 S7        30.01S                  
CHESTER        PTSUNNY   86  59  39 N5        30.02S                  
MERIDEN        MOSUNNY   87  55  33 VRB5      30.00S                  
WILLIMANTIC    SUNNY     83  59  44 W7        30.00F                  
OXFORD         MOSUNNY   81  58  45 W7        30.05S                  
$$

MEZ002-015-021-024-NHZ003-005-008-011-012-014-VTZ005-008-212000-
NORTHERN NEW ENGLAND
  
CITY           SKY/WX    TMP DP  RH WIND       PRES   REMARKS
PORTLAND ME    PTSUNNY   74  59  59 S9        29.98S                  
BANGOR ME      MOSUNNY   77  46  33 NW10G24   29.96S                  
CONCORD NH     MOSUNNY   81  61  50 NW12G17   30.00F                  
MANCHESTER NH  PTSUNNY   86  60  41 NW8G18    29.98S                  
NASHUA NH      PTSUNNY   83  62  49 VRB3      29.99F                  
PORTSMOUTH NH  PTSUNNY   78  61  55 SE7       29.97F                  
JAFFREY NH     MOSUNNY   82  58  43 NW8       30.04S                  
KEENE NH       CLOUDY    80  61  52 N6        30.01S                  
BURLINGTON VT  MOSUNNY   78  53  41 NW10      30.04S                  
MT. WASHINGTON PTSUNNY   46  39  76 W49G58      N/A                   
$$

NYZ052-076-212000-
EASTERN NEW YORK
  
CITY           SKY/WX    TMP DP  RH WIND       PRES   REMARKS
ALBANY         PTSUNNY   84  62  47 VRB5      30.02S                  
NEW YORK CITY  PTSUNNY   85  64  49 S10       30.00S                  
$$
 
ANZALL-212000-
MARINE OBSERVATIONS
  
STATION/POSITION TIME  TEMP    WIND        PRES    VSBY  WAVE
                       AIR SEA DIR/SP/G                  HT/PER
                 (UTC) (F)     (DEG/KT/KT) (MB)    (MI)  (FT/S)
BOSTON BUOY      1840   69 66   60/  6/  8 1015.4F
BUZZARDS BAY     1800   72     210/ 14/ 15 1015.9S
NANTUCKET SOUND  1850   76 77  210/ 16/ 19 1014.9R         1/ 3
MASS BAY-STELLWA 1704   70 61   90/  4/  4 1015.7R  1 7/8  1/ 8
ISLE OF SHOALS   1800   70     120/  8/  9 1014.8S
S OF BLOCK IS    1856      74                N/A           2/ 7
$$

......................KEY.........................
  SKY/WX - SKY CONDITION/PRESENT WEATHER
  TMP    - TEMPERATURE IN FAHRENHEIT
  DWPT   - DEWPOINT IN FAHRENHEIT
  RH     - RELATIVE HUMIDITY IN PERCENT
  WIND   - DIRECTION AND SPEED IN MPH
  PRES   - MEAN SEA LEVEL PRESSURE IN INCHES OF HG
  WCI    - WIND CHILL INDEX
  VSB    - VISIBILITY IN MILES
  HX     - HEAT INDEX
  TC     - TEMPERATURE IN CELSIUS
  VRB    - VARIABLE WIND DIRECTION
  N/A    - NOT AVAILABLE
  
      

Other recent Regional Weather Roundups

Thu Jul 25, 10:10am EDT

Thu Jul 25, 9:10am EDT

Thu Jul 25, 8:10am EDT

Thu Jul 25, 7:10am EDT

Thu Jul 25, 6:10am EDT

Thu Jul 25, 5:10am EDT

Thu Jul 25, 4:10am EDT

Thu Jul 25, 3:10am EDT

Thu Jul 25, 2:10am EDT

Thu Jul 25, 1:10am EDT

Thu Jul 25, 12:10am EDT

Wed Jul 24, 11:10pm EDT

Wed Jul 24, 10:10pm EDT

Wed Jul 24, 9:10pm EDT

Wed Jul 24, 8:10pm EDT

Wed Jul 24, 7:10pm EDT

Wed Jul 24, 6:10pm EDT

Wed Jul 24, 5:10pm EDT

Wed Jul 24, 4:10pm EDT

Wed Jul 24, 3:10pm EDT

Wed Jul 24, 2:10pm EDT

Wed Jul 24, 1:10pm EDT

Wed Jul 24, 12:10pm EDT

Wed Jul 24, 11:10am EDT

Wed Jul 24, 10:10am EDT

Wed Jul 24, 9:10am EDT

Wed Jul 24, 8:10am EDT

Wed Jul 24, 7:10am EDT

Wed Jul 24, 6:10am EDT

Wed Jul 24, 5:10am EDT

Wed Jul 24, 4:10am EDT

Wed Jul 24, 3:10am EDT

Wed Jul 24, 2:10am EDT

Wed Jul 24, 1:10am EDT

Wed Jul 24, 12:10am EDT

Tue Jul 23, 11:10pm EDT

Tue Jul 23, 10:10pm EDT

Tue Jul 23, 9:10pm EDT

Tue Jul 23, 8:10pm EDT

Tue Jul 23, 7:10pm EDT

Tue Jul 23, 6:10pm EDT

Tue Jul 23, 5:10pm EDT

Tue Jul 23, 4:10pm EDT

Tue Jul 23, 3:10pm EDT

Tue Jul 23, 2:10pm EDT

Tue Jul 23, 1:10pm EDT

Tue Jul 23, 12:10pm EDT

Tue Jul 23, 11:10am EDT

Tue Jul 23, 10:10am EDT

Tue Jul 23, 10:10am EDT

Tue Jul 23, 9:10am EDT

Tue Jul 23, 8:10am EDT

Tue Jul 23, 7:10am EDT

Tue Jul 23, 6:10am EDT

Tue Jul 23, 5:10am EDT

Tue Jul 23, 4:10am EDT

Tue Jul 23, 3:10am EDT

Tue Jul 23, 2:10am EDT

Tue Jul 23, 1:10am EDT

Tue Jul 23, 12:10am EDT

Mon Jul 22, 11:10pm EDT

Mon Jul 22, 10:10pm EDT

Mon Jul 22, 9:10pm EDT

Mon Jul 22, 8:10pm EDT

Mon Jul 22, 7:10pm EDT

Mon Jul 22, 6:10pm EDT

Mon Jul 22, 5:10pm EDT

Mon Jul 22, 4:10pm EDT

Mon Jul 22, 3:10pm EDT

Mon Jul 22, 2:10pm EDT

Mon Jul 22, 1:10pm EDT

Mon Jul 22, 12:10pm EDT

Mon Jul 22, 11:10am EDT

Mon Jul 22, 10:10am EDT

Mon Jul 22, 9:10am EDT

Mon Jul 22, 8:10am EDT

Mon Jul 22, 7:10am EDT

Mon Jul 22, 6:10am EDT

Mon Jul 22, 5:10am EDT

Mon Jul 22, 4:10am EDT

Mon Jul 22, 3:10am EDT

Mon Jul 22, 2:10am EDT

Mon Jul 22, 1:10am EDT

Mon Jul 22, 12:10am EDT

Sun Jul 21, 11:10pm EDT

Sun Jul 21, 10:10pm EDT

Sun Jul 21, 9:10pm EDT

Sun Jul 21, 8:10pm EDT

Sun Jul 21, 7:10pm EDT

Sun Jul 21, 6:10pm EDT

Sun Jul 21, 5:10pm EDT

Sun Jul 21, 4:10pm EDT

Sun Jul 21, 2:10pm EDT

Sun Jul 21, 1:10pm EDT

Sun Jul 21, 12:10pm EDT

Sun Jul 21, 11:10am EDT

Sun Jul 21, 10:10am EDT

Sun Jul 21, 9:10am EDT

Sun Jul 21, 8:10am EDT

Sun Jul 21, 7:10am EDT

Sun Jul 21, 6:10am EDT

Sun Jul 21, 5:10am EDT

Sun Jul 21, 4:10am EDT

Sun Jul 21, 3:10am EDT

Sun Jul 21, 2:10am EDT

Sun Jul 21, 1:10am EDT

Sun Jul 21, 12:10am EDT

Sat Jul 20, 11:10pm EDT

Sat Jul 20, 10:10pm EDT

Sat Jul 20, 9:10pm EDT

Sat Jul 20, 8:10pm EDT

Sat Jul 20, 7:10pm EDT

Sat Jul 20, 6:10pm EDT

Sat Jul 20, 5:10pm EDT

Sat Jul 20, 4:10pm EDT

Sat Jul 20, 3:10pm EDT

Sat Jul 20, 2:10pm EDT

Sat Jul 20, 1:10pm EDT

Sat Jul 20, 12:10pm EDT

Sat Jul 20, 11:10am EDT

Sat Jul 20, 10:10am EDT

Sat Jul 20, 9:10am EDT

Sat Jul 20, 8:10am EDT

Sat Jul 20, 7:10am EDT

Sat Jul 20, 6:10am EDT

Sat Jul 20, 5:10am EDT

Sat Jul 20, 4:10am EDT

Sat Jul 20, 3:10am EDT

Sat Jul 20, 2:10am EDT

Sat Jul 20, 1:10am EDT

Sat Jul 20, 12:10am EDT

Fri Jul 19, 11:10pm EDT

Fri Jul 19, 10:10pm EDT

Fri Jul 19, 9:10pm EDT

Fri Jul 19, 8:10pm EDT

Fri Jul 19, 7:10pm EDT

Fri Jul 19, 6:10pm EDT

Fri Jul 19, 5:10pm EDT

Fri Jul 19, 4:10pm EDT

Fri Jul 19, 3:10pm EDT

Fri Jul 19, 2:10pm EDT

Fri Jul 19, 1:10pm EDT

Fri Jul 19, 12:10pm EDT

Fri Jul 19, 11:10am EDT

Fri Jul 19, 10:10am EDT

Fri Jul 19, 9:10am EDT

Fri Jul 19, 8:10am EDT

Fri Jul 19, 7:10am EDT

Fri Jul 19, 6:10am EDT

Fri Jul 19, 5:10am EDT

Fri Jul 19, 4:10am EDT

Fri Jul 19, 3:10am EDT

Fri Jul 19, 2:10am EDT

Fri Jul 19, 1:10am EDT

Fri Jul 19, 12:10am EDT

Thu Jul 18, 11:10pm EDT

Thu Jul 18, 10:10pm EDT

Thu Jul 18, 9:10pm EDT

Thu Jul 18, 8:10pm EDT

Thu Jul 18, 7:10pm EDT

Thu Jul 18, 6:10pm EDT

Thu Jul 18, 5:10pm EDT

Thu Jul 18, 4:10pm EDT

Thu Jul 18, 3:10pm EDT

Thu Jul 18, 2:10pm EDT

Thu Jul 18, 1:10pm EDT

Thu Jul 18, 12:10pm EDT

Thu Jul 18, 11:10am EDT